TimeEDT,TemperatureF,Dew PointF,Humidity,Sea Level PressureIn,VisibilityMPH,Wind Direction,Wind SpeedMPH,Gust SpeedMPH,PrecipitationIn,Events,Conditions,WindDirDegrees,DateUTC
12:15 AM,57.2,57.2,100,30.18,9.0,Calm,Calm,-,N/A,,Unknown,0,2013-09-16 04:15:00
12:35 AM,57.2,57.2,100,30.18,8.0,Calm,Calm,-,N/A,,Unknown,0,2013-09-16 04:35:00
12:55 AM,55.4,55.4,100,30.18,8.0,Calm,Calm,-,N/A,,Unknown,0,2013-09-16 04:55:00
1:15 AM,55.4,55.4,100,30.18,7.0,Calm,Calm,-,N/A,,Unknown,0,2013-09-16 05:15:00
1:35 AM,57.2,57.2,100,30.19,10.0,Calm,Calm,-,N/A,,Unknown,0,2013-09-16 05:35:00
1:55 AM,55.4,55.4,100,30.19,10.0,Calm,Calm,-,N/A,,Unknown,0,2013-09-16 05:55:00
2:15 AM,53.6,53.6,100,30.19,5.0,Calm,Calm,-,N/A,,Mist,0,2013-09-16 06:15:00
2:35 AM,53.6,53.6,100,30.18,0.8,Calm,Calm,-,N/A,,Mist,0,2013-09-16 06:35:00
2:55 AM,55.4,55.4,100,30.18,5.0,Calm,Calm,-,N/A,,Mist,0,2013-09-16 06:55:00
3:15 AM,55.4,55.4,100,30.18,5.0,Calm,Calm,-,N/A,,Mist,0,2013-09-16 07:15:00
3:35 AM,53.6,53.6,100,30.19,5.0,Calm,Calm,-,N/A,,Mist,0,2013-09-16 07:35:00
3:55 AM,53.6,53.6,100,30.18,2.0,Calm,Calm,-,N/A,,Mist,0,2013-09-16 07:55:00
4:15 AM,53.6,53.6,100,30.18,0.2,Calm,Calm,-,N/A,Fog,Fog,0,2013-09-16 08:15:00
4:35 AM,55.4,55.4,100,30.19,0.2,Calm,Calm,-,N/A,Fog,Fog,0,2013-09-16 08:35:00
4:55 AM,53.6,53.6,100,30.19,2.5,Calm,Calm,-,N/A,,Mist,0,2013-09-16 08:55:00
5:15 AM,53.6,53.6,100,30.19,1.0,Calm,Calm,-,N/A,,Mist,0,2013-09-16 09:15:00
5:35 AM,53.6,53.6,100,30.20,0.5,Calm,Calm,-,N/A,Fog,Fog,0,2013-09-16 09:35:00
5:55 AM,53.6,53.6,100,30.19,0.2,Calm,Calm,-,N/A,Fog,Fog,0,2013-09-16 09:55:00
6:15 AM,53.6,53.6,100,30.19,0.2,Calm,Calm,-,N/A,Fog,Fog,0,2013-09-16 10:15:00
6:35 AM,53.6,53.6,100,30.20,1.2,Calm,Calm,-,N/A,,Mist,0,2013-09-16 10:35:00
6:55 AM,53.6,53.6,100,30.20,0.2,Calm,Calm,-,N/A,Fog,Fog,0,2013-09-16 10:55:00
7:15 AM,53.6,53.6,100,30.21,0.5,Calm,Calm,-,N/A,Fog,Fog,0,2013-09-16 11:15:00
7:35 AM,53.6,53.6,100,30.21,0.2,Calm,Calm,-,N/A,Fog,Fog,0,2013-09-16 11:35:00
7:55 AM,53.6,53.6,100,30.21,0.2,Calm,Calm,-,N/A,Fog,Fog,0,2013-09-16 11:55:00
8:15 AM,53.6,53.6,100,30.21,0.2,Calm,Calm,-,N/A,Fog,Fog,0,2013-09-16 12:15:00
8:35 AM,55.4,55.4,100,30.21,0.2,Calm,Calm,-,N/A,Fog,Fog,0,2013-09-16 12:35:00
8:55 AM,57.2,57.2,100,30.21,5.0,Calm,Calm,-,N/A,,Scattered Clouds,0,2013-09-16 12:55:00
9:15 AM,59.0,59.0,100,30.21,10.0,Calm,Calm,-,N/A,,Partly Cloudy,0,2013-09-16 13:15:00
9:35 AM,59.0,59.0,100,30.22,10.0,Calm,Calm,-,N/A,,Clear,0,2013-09-16 13:35:00
9:55 AM,59.0,59.0,100,30.22,10.0,Calm,Calm,-,N/A,,Clear,0,2013-09-16 13:55:00
10:15 AM,60.8,60.8,100,30.23,10.0,Calm,Calm,-,N/A,,Clear,0,2013-09-16 14:15:00
10:35 AM,62.6,59.0,88,30.23,10.0,Calm,Calm,-,N/A,,Clear,0,2013-09-16 14:35:00
10:55 AM,64.4,59.0,83,30.23,10.0,Calm,Calm,-,N/A,,Partly Cloudy,0,2013-09-16 14:55:00
11:15 AM,64.4,60.8,88,30.24,10.0,Calm,Calm,-,N/A,,Clear,0,2013-09-16 15:15:00
11:35 AM,66.2,62.6,88,30.23,10.0,Calm,Calm,-,N/A,,Clear,0,2013-09-16 15:35:00
11:55 AM,68.0,60.8,78,30.24,10.0,Calm,Calm,-,N/A,,Scattered Clouds,0,2013-09-16 15:55:00
12:15 PM,68.0,64.4,88,30.25,6.0,Calm,Calm,-,N/A,Rain,Light Rain,0,2013-09-16 16:15:00
12:35 PM,68.0,64.4,88,30.23,10.0,Calm,Calm,-,0.01,,Scattered Clouds,0,2013-09-16 16:35:00
12:55 PM,68.0,64.4,88,30.23,10.0,Calm,Calm,-,0.01,,Mostly Cloudy,0,2013-09-16 16:55:00
1:15 PM,69.8,62.6,78,30.23,10.0,North,3.5,-,N/A,,Mostly Cloudy,360,2013-09-16 17:15:00
1:35 PM,69.8,62.6,78,30.24,10.0,NNW,3.5,-,N/A,,Overcast,340,2013-09-16 17:35:00
1:55 PM,68.0,62.6,83,30.24,10.0,Calm,Calm,-,N/A,,Overcast,0,2013-09-16 17:55:00
2:15 PM,68.0,62.6,83,30.24,8.0,NW,4.6,-,N/A,Rain,Light Rain,310,2013-09-16 18:15:00
2:35 PM,68.0,62.6,83,30.23,10.0,Calm,Calm,-,N/A,,Mostly Cloudy,0,2013-09-16 18:35:00
2:55 PM,68.0,62.6,83,30.23,10.0,Calm,Calm,-,N/A,,Mostly Cloudy,0,2013-09-16 18:55:00
3:15 PM,68.0,59.0,73,30.22,10.0,Calm,Calm,-,N/A,,Mostly Cloudy,0,2013-09-16 19:15:00
3:35 PM,68.0,59.0,73,30.22,10.0,WNW,3.5,-,N/A,,Overcast,300,2013-09-16 19:35:00
3:55 PM,68.0,59.0,73,30.21,10.0,Calm,Calm,-,N/A,,Overcast,0,2013-09-16 19:55:00
4:15 PM,69.8,59.0,68,30.20,10.0,WNW,3.5,-,N/A,,Scattered Clouds,300,2013-09-16 20:15:00
4:35 PM,69.8,59.0,68,30.20,10.0,Calm,Calm,-,N/A,,Partly Cloudy,0,2013-09-16 20:35:00
4:55 PM,68.0,59.0,73,30.21,10.0,WSW,4.6,-,N/A,,Partly Cloudy,250,2013-09-16 20:55:00
5:15 PM,68.0,59.0,73,30.21,10.0,West,4.6,-,N/A,,Partly Cloudy,270,2013-09-16 21:15:00
5:35 PM,68.0,59.0,73,30.20,10.0,WSW,3.5,-,N/A,,Scattered Clouds,250,2013-09-16 21:35:00
5:55 PM,68.0,59.0,73,30.21,10.0,Calm,Calm,-,N/A,,Mostly Cloudy,0,2013-09-16 21:55:00
6:15 PM,68.0,60.8,78,30.21,10.0,Calm,Calm,-,N/A,,Mostly Cloudy,0,2013-09-16 22:15:00
6:35 PM,68.0,60.8,78,30.21,10.0,Calm,Calm,-,N/A,,Scattered Clouds,0,2013-09-16 22:35:00
6:55 PM,68.0,60.8,78,30.21,10.0,Calm,Calm,-,N/A,,Mostly Cloudy,0,2013-09-16 22:55:00
7:15 PM,68.0,62.6,83,30.21,10.0,Calm,Calm,-,N/A,,Overcast,0,2013-09-16 23:15:00
7:35 PM,68.0,62.6,83,30.21,10.0,Calm,Calm,-,N/A,,Unknown,0,2013-09-16 23:35:00
7:55 PM,66.2,62.6,88,30.21,10.0,Calm,Calm,-,N/A,,Unknown,0,2013-09-16 23:55:00
8:15 PM,66.2,62.6,88,30.22,10.0,Calm,Calm,-,N/A,,Unknown,0,2013-09-17 00:15:00
8:35 PM,66.2,60.8,83,30.23,10.0,Calm,Calm,-,N/A,,Unknown,0,2013-09-17 00:35:00
8:55 PM,64.4,62.6,94,30.23,10.0,Calm,Calm,-,N/A,,Unknown,0,2013-09-17 00:55:00
9:15 PM,64.4,62.6,94,30.23,10.0,Calm,Calm,-,N/A,,Unknown,0,2013-09-17 01:15:00
9:35 PM,64.4,62.6,94,30.24,10.0,Calm,Calm,-,N/A,,Unknown,0,2013-09-17 01:35:00
9:55 PM,62.6,62.6,100,30.24,10.0,ENE,4.6,-,N/A,,Unknown,70,2013-09-17 01:55:00
10:15 PM,62.6,62.6,100,30.24,10.0,Calm,Calm,-,N/A,,Unknown,0,2013-09-17 02:15:00
10:35 PM,60.8,60.8,100,30.25,9.0,Calm,Calm,-,N/A,,Unknown,0,2013-09-17 02:35:00
10:55 PM,60.8,59.0,94,30.25,10.0,NE,4.6,-,N/A,,Unknown,40,2013-09-17 02:55:00
11:15 PM,62.6,59.0,88,30.25,10.0,Calm,Calm,-,N/A,,Unknown,0,2013-09-17 03:15:00
11:35 PM,60.8,59.0,94,30.26,10.0,Calm,Calm,-,N/A,,Unknown,0,2013-09-17 03:35:00
11:55 PM,62.6,59.0,88,30.27,10.0,Calm,Calm,-,N/A,,Unknown,0,2013-09-17 03:55:00